When you browse on this site, cookies collect data to enhance your experience and personalize the content and advertising you see.
Visit our Privacy Policy to learn more. By continuing to use the site, you agree to this use of cookies and data.
  • en France
  • Liste des pays
  • À 7 jours
  • Température de l'eau
  • Carte satellitaire
  • Carte météo
  • Widgets météo
  • user-avatar
    Se connecter

    Météo par heure à Banja Luka

    Ce jour, 27 Mai, Lundi

    Heure Température Précipitation Vent Pression Humidité
    00:00 +14°C° 0 mm 1 m/s 713 mmHg 96%
    01:00 +13°C° 0 mm 1 m/s 713 mmHg 96%
    02:00 +13°C° 0 mm 1 m/s 713 mmHg 95%
    03:00 +13°C° 0 mm 1 m/s 712 mmHg 95%
    04:00 +13°C° 0 mm 1 m/s 712 mmHg 95%
    05:00 +14°C° 0.1 mm 1 m/s 712 mmHg 93%
    06:00 +15°C° 0.1 mm 1 m/s 712 mmHg 91%
    07:00 +16°C° 0.1 mm 1 m/s 712 mmHg 89%
    08:00 +15°C° 1.4 mm 1 m/s 712 mmHg 91%
    09:00 +15°C° 1.4 mm 1 m/s 712 mmHg 93%
    10:00 +15°C° 1.4 mm 1 m/s 712 mmHg 95%
    11:00 +15°C° 1 mm 1 m/s 712 mmHg 95%
    12:00 +15°C° 1 mm 1 m/s 712 mmHg 95%
    13:00 +15°C° 1 mm 0 m/s 712 mmHg 95%
    14:00 +16°C° 0.6 mm 1 m/s 711 mmHg 95%
    15:00 +16°C° 0.6 mm 1 m/s 711 mmHg 96%
    16:00 +15°C° 0.6 mm 1 m/s 710 mmHg 96%
    17:00 +15°C° 0 mm 1 m/s 710 mmHg 96%
    18:00 +15°C° 0 mm 1 m/s 710 mmHg 95%
    19:00 +15°C° 0 mm 1 m/s 710 mmHg 95%
    20:00 +14°C° 0 mm 1 m/s 709 mmHg 95%
    21:00 +14°C° 0 mm 1 m/s 709 mmHg 96%
    22:00 +13°C° 0 mm 1 m/s 709 mmHg 96%
    23:00 +13°C° 0 mm 1 m/s 709 mmHg 95%

    Demain, 28 Mai, Mardi

    Heure Température Précipitation Vent Pression Humidité
    00:00 +13°C° 0 mm 1 m/s 708 mmHg 95%
    01:00 +13°C° 0 mm 1 m/s 708 mmHg 94%
    02:00 +13°C° 0 mm 2 m/s 708 mmHg 94%
    03:00 +13°C° 0 mm 2 m/s 707 mmHg 94%
    04:00 +13°C° 0 mm 2 m/s 707 mmHg 94%
    05:00 +13°C° 0.1 mm 2 m/s 707 mmHg 93%
    06:00 +14°C° 0.1 mm 2 m/s 707 mmHg 92%
    07:00 +15°C° 0.1 mm 2 m/s 707 mmHg 92%
    08:00 +17°C° 0.1 mm 3 m/s 708 mmHg 81%
    09:00 +18°C° 0.1 mm 4 m/s 708 mmHg 71%
    10:00 +20°C° 0.1 mm 4 m/s 708 mmHg 60%
    11:00 +20°C° 0.5 mm 4 m/s 708 mmHg 64%
    12:00 +20°C° 0.5 mm 4 m/s 708 mmHg 68%
    13:00 +20°C° 0.5 mm 4 m/s 708 mmHg 71%
    14:00 +20°C° 0.4 mm 4 m/s 708 mmHg 71%
    15:00 +20°C° 0.4 mm 4 m/s 708 mmHg 70%
    16:00 +20°C° 0.4 mm 4 m/s 708 mmHg 69%
    17:00 +18°C° 0 mm 3 m/s 708 mmHg 74%
    18:00 +17°C° 0 mm 3 m/s 708 mmHg 79%
    19:00 +16°C° 0 mm 2 m/s 708 mmHg 84%
    20:00 +15°C° 0 mm 2 m/s 708 mmHg 87%
    21:00 +14°C° 0 mm 2 m/s 708 mmHg 91%
    22:00 +13°C° 0 mm 2 m/s 709 mmHg 94%
    23:00 +13°C° 0 mm 2 m/s 709 mmHg 95%

    Après-demain, 29 Mai, Mercredi

    Heure Température Précipitation Vent Pression Humidité
    00:00 +12°C° 0 mm 2 m/s 709 mmHg 95%
    01:00 +12°C° 0 mm 2 m/s 709 mmHg 95%
    02:00 +13°C° 0 mm 1 m/s 709 mmHg 95%
    03:00 +13°C° 0 mm 1 m/s 709 mmHg 94%
    04:00 +13°C° 0 mm 1 m/s 709 mmHg 93%
    05:00 +14°C° 0.1 mm 1 m/s 709 mmHg 91%
    06:00 +15°C° 0.1 mm 1 m/s 710 mmHg 88%
    07:00 +16°C° 0.1 mm 1 m/s 710 mmHg 85%
    08:00 +15°C° 0.2 mm 1 m/s 710 mmHg 85%
    09:00 +15°C° 0.2 mm 1 m/s 711 mmHg 85%
    10:00 +15°C° 0.2 mm 1 m/s 711 mmHg 85%
    11:00 +16°C° 0.2 mm 2 m/s 712 mmHg 81%
    12:00 +16°C° 0.2 mm 2 m/s 712 mmHg 77%
    13:00 +17°C° 0.2 mm 2 m/s 712 mmHg 73%
    14:00 +16°C° 0.3 mm 2 m/s 712 mmHg 75%
    15:00 +16°C° 0.3 mm 2 m/s 713 mmHg 77%
    16:00 +16°C° 0.3 mm 2 m/s 713 mmHg 79%
    17:00 +14°C° 0.2 mm 2 m/s 713 mmHg 85%
    18:00 +13°C° 0.2 mm 2 m/s 713 mmHg 90%
    19:00 +11°C° 0.2 mm 1 m/s 713 mmHg 95%
    20:00 +11°C° 0.1 mm 1 m/s 714 mmHg 96%
    21:00 +11°C° 0.1 mm 1 m/s 714 mmHg 97%
    22:00 +10°C° 0.1 mm 1 m/s 715 mmHg 98%
    23:00 +10°C° 0.1 mm 1 m/s 715 mmHg 98%

    30 Mai, Jeudi

    Heure Température Précipitation Vent Pression Humidité
    00:00 +10°C° 0.1 mm 1 m/s 715 mmHg 98%
    01:00 +10°C° 0.1 mm 1 m/s 715 mmHg 98%
    02:00 +10°C° 0 mm 1 m/s 715 mmHg 98%
    03:00 +9°C° 0 mm 1 m/s 715 mmHg 98%
    04:00 +9°C° 0 mm 1 m/s 715 mmHg 98%
    05:00 +10°C° 0 mm 1 m/s 715 mmHg 96%
    06:00 +10°C° 0 mm 1 m/s 716 mmHg 94%
    07:00 +11°C° 0 mm 1 m/s 716 mmHg 92%
    08:00 +12°C° 0.1 mm 1 m/s 716 mmHg 87%
    09:00 +13°C° 0.1 mm 2 m/s 716 mmHg 82%
    10:00 +13°C° 0.1 mm 2 m/s 717 mmHg 77%
    11:00 +14°C° 0.1 mm 2 m/s 717 mmHg 76%
    12:00 +14°C° 0.1 mm 2 m/s 717 mmHg 75%
    13:00 +14°C° 0.1 mm 2 m/s 717 mmHg 74%
    14:00 +14°C° 0 mm 2 m/s 717 mmHg 70%
    15:00 +15°C° 0 mm 2 m/s 717 mmHg 67%
    16:00 +15°C° 0 mm 2 m/s 717 mmHg 63%
    17:00 +14°C° 0 mm 1 m/s 717 mmHg 69%
    18:00 +13°C° 0 mm 1 m/s 716 mmHg 75%
    19:00 +12°C° 0 mm 1 m/s 716 mmHg 81%
    20:00 +11°C° 0 mm 1 m/s 716 mmHg 84%
    21:00 +10°C° 0 mm 1 m/s 717 mmHg 87%
    22:00 +9°C° 0 mm 1 m/s 717 mmHg 89%
    23:00 +9°C° 0 mm 1 m/s 717 mmHg 89%

    31 Mai, Vendredi

    Heure Température Précipitation Vent Pression Humidité
    00:00 +9°C° 0 mm 1 m/s 717 mmHg 88%
    01:00 +9°C° 0 mm 1 m/s 716 mmHg 88%
    02:00 +9°C° 0 mm 1 m/s 716 mmHg 89%
    03:00 +10°C° 0 mm 1 m/s 716 mmHg 89%
    04:00 +10°C° 0 mm 1 m/s 716 mmHg 90%
    05:00 +12°C° 0 mm 1 m/s 716 mmHg 87%
    06:00 +12°C° 0 mm 0 m/s 716 mmHg 83%
    07:00 +13°C° 0 mm 0 m/s 716 mmHg 80%
    08:00 +16°C° 0 mm 1 m/s 716 mmHg 72%
    09:00 +19°C° 0 mm 1 m/s 716 mmHg 63%
    10:00 +20°C° 0 mm 2 m/s 716 mmHg 55%
    11:00 +20°C° 0.2 mm 2 m/s 716 mmHg 57%
    12:00 +20°C° 0.2 mm 3 m/s 716 mmHg 60%
    13:00 +20°C° 0.2 mm 3 m/s 716 mmHg 62%
    14:00 +20°C° 0.8 mm 2 m/s 716 mmHg 69%
    15:00 +19°C° 0.8 mm 2 m/s 716 mmHg 76%
    16:00 +19°C° 0.8 mm 2 m/s 715 mmHg 83%
    17:00 +17°C° 1.5 mm 2 m/s 716 mmHg 87%
    18:00 +16°C° 1.5 mm 2 m/s 716 mmHg 91%
    19:00 +15°C° 1.5 mm 2 m/s 716 mmHg 96%
    20:00 +13°C° 1.6 mm 2 m/s 717 mmHg 96%
    21:00 +11°C° 1.6 mm 3 m/s 717 mmHg 96%
    22:00 +10°C° 1.6 mm 3 m/s 718 mmHg 96%
    23:00 +8°C° 0 mm 3 m/s 718 mmHg 95%

    1 Juin, Samedi

    Heure Température Précipitation Vent Pression Humidité
    00:00 +7°C° 0 mm 2 m/s 718 mmHg 95%
    01:00 +6°C° 0 mm 1 m/s 719 mmHg 94%
    02:00 +6°C° 0 mm 1 m/s 719 mmHg 94%
    03:00 +6°C° 0 mm 1 m/s 719 mmHg 93%
    04:00 +6°C° 0 mm 1 m/s 719 mmHg 92%
    05:00 +5°C° 0 mm 2 m/s 719 mmHg 89%
    06:00 +5°C° 0 mm 3 m/s 720 mmHg 86%
    07:00 +7°C° 0 mm 3 m/s 720 mmHg 83%
    08:00 +7°C° 0 mm 4 m/s 720 mmHg 75%
    09:00 +8°C° 0 mm 4 m/s 720 mmHg 67%
    10:00 +9°C° 0 mm 5 m/s 720 mmHg 58%
    11:00 +9°C° 0 mm 5 m/s 720 mmHg 59%
    12:00 +10°C° 0 mm 5 m/s 720 mmHg 59%
    13:00 +10°C° 0 mm 5 m/s 720 mmHg 59%
    14:00 +12°C° 0 mm 5 m/s 720 mmHg 61%
    15:00 +12°C° 0 mm 5 m/s 719 mmHg 62%
    16:00 +12°C° 0 mm 5 m/s 719 mmHg 63%
    17:00 +11°C° 0.1 mm 4 m/s 719 mmHg 69%
    18:00 +11°C° 0.1 mm 4 m/s 720 mmHg 75%
    19:00 +10°C° 0.1 mm 3 m/s 720 mmHg 81%
    20:00 +9°C° 0.1 mm 3 m/s 720 mmHg 85%
    21:00 +8°C° 0.1 mm 2 m/s 720 mmHg 90%
    22:00 +7°C° 0.1 mm 2 m/s 720 mmHg 94%
    23:00 +7°C° 0 mm 2 m/s 720 mmHg 94%
    Voir plus